sat.trackr.live / text

‹ back to catalog

SIT-HSE

NORAD 61763 · 2024-199AE

PAYLOAD ACTIVE UNKNOWN

§ Identity

Operator
Country
CIS
Launch date
2024-11-04
Launch site
VOSTO
Launch vehicle
Mass (kg)
RCS (m²)

External: N2YO · Heavens-Above · Gunter

§ Orbital elements

Epoch: 2026-05-25T03:46:25.078944Z

Period
92.85 min
Inclination
97.3012°
Eccentricity
0.0005324
Mean motion
15.50937843 rev/d
Perigee alt
410.4 km
Apogee alt
417.6 km
Semi-major
6,792.1 km
B*
5.7887e-4
RAAN
21.0608°
Arg perigee
34.3438°
Mean anomaly
325.8157°
Rev number
13,401

§ Raw data

SIT-HSE1 61763U 24199AE  26145.15723471  .00033547  00000+0  57887-3 0  99952 61763  97.3012  21.0608 0005324  34.3438 325.8157 15.50937843134018

JSON: /api/v1/satellites/61763 · /tle

For live sub-satellite position, see the globe view (requires WebGL).

§ Visibility from observer

Set your observer location to see the next 7 days of passes ≥ 10°. The values pass through the URL so the page stays shareable.

No JS? Fill the form by hand. The geolocation button needs JavaScript.

§ Radio — SatNOGS DB

ModeDescriptionDownlinkUplink
GMSK USP Mode U - GMSK2k4 USP 401.015 MHz

1 transmitter · refreshed weekly from db.satnogs.org